FW1508 Weather Reports


time (UTC)temp
C
wind
direction
speed
KPH
gust
KPH
rain 1hr
cm
rain 24hr
cm
rain mn
cm
humidity
%
barometer
mb
20260507231335 11 251 0.0 4.8 0.00 0.00 0.00 50 1008.8
20260507230827 11 251 0.0 4.8 0.00 0.00 0.00 49 1008.8
20260507230327 11 251 0.0 4.8 0.00 0.00 0.00 51 1008.8
20260507225827 11 251 1.6 6.4 0.00 0.00 0.00 50 1008.7
20260507225558 12 251 1.6 12.9 0.00 0.00 0.00 52 1008.7
20260507224829 12 251 1.6 12.9 0.00 0.00 0.00 50 1008.7
20260507224330 12 251 0.0 3.2 0.00 0.00 0.00 50 1008.5
20260507223824 12 251 0.0 6.4 0.00 0.00 0.00 49 1008.4
20260507223324 12 251 1.6 20.9 0.00 0.00 0.00 50 1008.5
20260507222824 12 251 3.2 20.9 0.00 0.00 0.00 50 1008.4
20260507222324 12 275 1.6 12.9 0.00 0.00 0.00 50 1008.4
20260507221822 12 275 1.6 9.7 0.00 0.00 0.00 49 1008.3
20260507221322 12 275 1.6 9.7 0.00 0.00 0.00 49 1008.3
20260507220818 12 275 3.2 9.7 0.00 0.00 0.00 49 1008.2
20260507220319 12 275 3.2 9.7 0.00 0.00 0.00 49 1008.2
20260507215818 13 275 1.6 9.7 0.00 0.00 0.00 49 1008.1
20260507215316 13 275 0.0 6.4 0.00 0.00 0.00 50 1008.1
20260507215044 13 275 1.6 9.7 0.00 0.00 0.00 50 1007.9
20260507214315 13 275 3.2 11.3 0.00 0.00 0.00 52 1007.9
20260507213811 13 275 3.2 16.1 0.00 0.00 0.00 48 1007.8
20260507213309 13 275 1.6 16.1 0.00 0.00 0.00 48 1007.8
20260507212808 13 275 1.6 12.9 0.00 0.00 0.00 48 1007.8
20260507212307 13 275 1.6 12.9 0.00 0.00 0.00 47 1007.8
20260507211806 13 275 3.2 12.9 0.00 0.00 0.00 48 1007.7
20260507211306 13 275 3.2 12.9 0.00 0.00 0.00 46 1007.7
20260507210759 13 274 3.2 16.1 0.00 0.00 0.00 49 1007.5
20260507210256 14 274 3.2 16.1 0.00 0.00 0.00 46 1007.6
20260507205757 14 275 4.8 16.1 0.00 0.00 0.00 44 1007.7
20260507205258 14 275 3.2 14.5 0.00 0.00 0.00 45 1007.7
20260507204758 14 275 3.2 9.7 0.00 0.00 0.00 47 1007.5
20260507204259 14 275 4.8 14.5 0.00 0.00 0.00 47 1007.5
20260507204025 13 275 4.8 19.3 0.00 0.00 0.00 46 1007.7
20260507203254 13 277 3.2 19.3 0.00 0.00 0.00 44 1007.6
20260507202751 13 269 3.2 12.9 0.00 0.00 0.00 45 1007.6
20260507202522 13 269 3.2 16.1 0.00 0.00 0.00 43 1007.8
20260507201752 13 269 3.2 16.1 0.00 0.00 0.00 43 1007.8
20260507201254 13 267 3.2 12.9 0.00 0.00 0.00 44 1007.7
20260507201018 13 269 1.6 12.9 0.00 0.00 0.00 43 1007.7
20260507200247 13 269 1.6 6.4 0.00 0.00 0.00 46 1007.8
20260507195745 13 269 1.6 11.3 0.00 0.00 0.00 43 1007.7
20260507195246 14 269 1.6 11.3 0.00 0.00 0.00 41 1007.7
20260507194743 14 269 1.6 11.3 0.00 0.00 0.00 43 1007.8
20260507194246 13 269 3.2 12.9 0.00 0.00 0.00 43 1007.9
20260507193741 13 269 3.2 14.5 0.00 0.00 0.00 42 1007.9
20260507193243 13 269 4.8 14.5 0.00 0.00 0.00 42 1007.9
20260507192742 14 269 3.2 11.3 0.00 0.00 0.00 41 1007.9
20260507192242 14 271 4.8 17.7 0.00 0.00 0.00 40 1007.8
20260507191742 14 271 6.4 17.7 0.00 0.00 0.00 39 1007.9
20260507191242 14 269 4.8 17.7 0.00 0.00 0.00 41 1008.0
20260507191014 14 268 4.8 14.5 0.00 0.00 0.00 41 1008.0
20260507190240 15 269 4.8 16.1 0.00 0.00 0.00 41 1008.0
20260507185740 15 267 4.8 16.1 0.00 0.00 0.00 42 1007.9
20260507185241 15 269 4.8 14.5 0.00 0.00 0.00 45 1008.0
20260507184738 14 272 3.2 16.1 0.00 0.00 0.00 45 1008.1
20260507184235 13 272 3.2 16.1 0.00 0.00 0.00 45 1008.1
20260507183736 13 273 4.8 14.5 0.00 0.00 0.00 46 1008.2
20260507183228 13 273 4.8 14.5 0.00 0.00 0.00 45 1008.2
20260507182729 13 273 3.2 12.9 0.00 0.00 0.00 44 1008.2
20260507182230 13 273 3.2 12.9 0.00 0.00 0.00 45 1008.3
20260507182001 13 273 3.2 17.7 0.00 0.00 0.00 44 1008.4
20260507181230 13 273 3.2 17.7 0.00 0.00 0.00 44 1008.3
20260507181002 13 272 1.6 9.7 0.00 0.00 0.00 45 1008.3
20260507180231 13 272 4.8 14.5 0.00 0.00 0.00 46 1008.2
20260507175723 13 272 4.8 14.5 0.00 0.00 0.00 44 1008.3
20260507175225 13 272 3.2 17.7 0.00 0.00 0.00 46 1008.5
20260507174723 13 272 4.8 17.7 0.00 0.00 0.00 44 1008.5
20260507174223 13 274 4.8 16.1 0.00 0.00 0.00 43 1008.4
20260507173724 13 274 4.8 12.9 0.00 0.00 0.00 43 1008.5
20260507173225 13 274 3.2 12.9 0.00 0.00 0.00 43 1008.7
20260507172724 13 273 1.6 12.9 0.00 0.00 0.00 43 1008.8
20260507172218 13 273 1.6 16.1 0.00 0.00 0.00 44 1008.7
20260507171948 13 273 3.2 16.1 0.00 0.00 0.00 44 1008.9
20260507171214 13 275 1.6 6.4 0.00 0.00 0.00 45 1008.8
20260507170713 13 275 1.6 14.5 0.00 0.00 0.00 46 1008.8
20260507170213 13 275 6.4 19.3 0.00 0.00 0.00 44 1008.8
20260507165712 13 275 8.0 19.3 0.00 0.00 0.00 45 1008.9
20260507165205 13 257 4.8 16.1 0.00 0.00 0.00 45 1008.9
20260507164705 13 255 1.6 14.5 0.00 0.00 0.00 44 1008.9
20260507164206 13 252 1.6 12.9 0.00 0.00 0.00 43 1009.0
20260507163706 13 252 4.8 12.9 0.00 0.00 0.00 43 1009.0
20260507163204 13 252 3.2 12.9 0.00 0.00 0.00 42 1009.0
20260507162703 13 252 1.6 14.5 0.00 0.00 0.00 44 1009.1
20260507162204 13 251 3.2 14.5 0.00 0.00 0.00 44 1009.2
20260507161701 13 251 3.2 11.3 0.00 0.00 0.00 43 1009.2
20260507161202 13 252 1.6 11.3 0.00 0.00 0.00 45 1009.3
20260507160656 13 252 4.8 16.1 0.00 0.00 0.00 47 1009.2
20260507160157 12 252 3.2 22.5 0.00 0.00 0.00 45 1009.4
20260507155655 12 250 1.6 22.5 0.00 0.00 0.00 44 1009.5
20260507155154 12 259 1.6 11.3 0.00 0.00 0.00 48 1009.4
20260507154654 12 259 4.8 14.5 0.00 0.00 0.00 45 1009.4
20260507154153 12 259 6.4 16.1 0.00 0.00 0.00 44 1009.6
20260507153654 12 258 6.4 22.5 0.00 0.00 0.00 46 1009.5
20260507153149 12 258 3.2 22.5 0.00 0.00 0.00 45 1009.6
20260507152650 12 240 3.2 14.5 0.00 0.00 0.00 47 1009.6
20260507152151 12 229 3.2 9.7 0.00 0.00 0.00 49 1009.9
20260507151649 12 229 3.2 9.7 0.00 0.00 0.00 48 1010.0
20260507151149 12 229 4.8 16.1 0.00 0.00 0.00 48 1010.0
20260507150650 12 229 6.4 16.1 0.00 0.00 0.00 47 1009.9
20260507150144 11 313 4.8 16.1 0.00 0.00 0.00 48 1009.9
20260507145646 11 313 3.2 14.5 0.00 0.00 0.00 50 1010.0
20260507145416 11 313 3.2 17.7 0.00 0.00 0.00 53 1010.1
20260507144646 11 313 3.2 17.7 0.00 0.00 0.00 52 1010.2
20260507144146 11 302 3.2 14.5 0.00 0.00 0.00 51 1010.2
20260507143646 11 302 3.2 14.5 0.00 0.00 0.00 52 1010.3
20260507143141 11 308 3.2 14.5 0.00 0.00 0.00 54 1010.3
20260507142642 11 309 1.6 14.5 0.00 0.00 0.00 54 1010.3
20260507142140 11 309 3.2 14.5 0.00 0.00 0.00 56 1010.3
20260507141640 11 311 3.2 12.9 0.00 0.00 0.00 59 1010.4
20260507141141 11 311 3.2 12.9 0.00 0.00 0.00 58 1010.4
20260507140913 10 319 1.6 4.8 0.00 0.00 0.00 61 1010.5
20260507140407 10 319 1.6 9.7 0.00 0.00 0.00 62 1010.5
20260507135638 10 319 1.6 9.7 0.00 0.00 0.00 62 1010.6
20260507135138 10 319 1.6 4.8 0.00 0.00 0.00 64 1010.5
20260507134908 10 319 1.6 9.7 0.00 0.00 0.00 64 1010.6
20260507134136 9 319 1.6 12.9 0.00 0.00 0.00 67 1010.8
20260507133639 9 322 1.6 12.9 0.00 0.00 0.00 69 1010.7
20260507133133 8 325 1.6 6.4 0.00 0.00 0.00 72 1010.7
20260507132635 8 325 1.6 6.4 0.00 0.00 0.00 74 1010.9
20260507132403 7 325 1.6 6.4 0.00 0.00 0.00 77 1010.8
20260507131633 6 325 1.6 6.4 0.00 0.00 0.00 81 1010.8
20260507131134 6 325 1.6 6.4 0.00 0.00 0.00 83 1010.8
20260507130633 5 325 0.0 8.0 0.00 0.00 0.00 89 1010.9
20260507130130 4 325 0.0 8.0 0.00 0.00 0.00 93 1010.8
20260507125628 4 325 0.0 0.0 0.00 0.00 0.00 94 1010.8
20260507125129 3 325 0.0 0.0 0.00 0.00 0.00 94 1010.9
20260507124627 3 325 0.0 0.0 0.00 0.00 0.00 94 1010.9
20260507124126 3 325 0.0 0.0 0.00 0.00 0.00 94 1010.9
20260507123626 2 325 0.0 0.0 0.00 0.00 0.00 94 1010.9
20260507123125 2 325 0.0 0.0 0.00 0.00 0.00 94 1010.9
20260507122624 2 325 0.0 1.6 0.00 0.00 0.00 94 1011.2
20260507122119 2 325 0.0 3.2 0.00 0.03 0.00 94 1011.2
20260507121615 2 325 0.0 3.2 0.00 0.03 0.00 94 1011.1
20260507121114 1 325 0.0 0.0 0.00 0.03 0.00 94 1010.9
20260507120611 1 325 0.0 0.0 0.00 0.03 0.00 94 1011.0
20260507120118 1 325 0.0 1.6 0.00 0.05 0.00 94 1011.2
20260507120112 1 325 0.0 0.0 0.00 0.05 0.00 94 1011.1
20260507115106 1 325 0.0 3.2 0.00 0.05 0.00 94 1011.3
20260507114607 1 325 0.0 3.2 0.00 0.05 0.00 93 1011.2
20260507114107 1 325 0.0 0.0 0.00 0.05 0.00 93 1011.2
20260507113605 1 325 0.0 0.0 0.00 0.05 0.00 93 1011.3
20260507113103 1 325 0.0 0.0 0.00 0.08 0.00 93 1011.3
20260507112600 1 325 0.0 0.0 0.00 0.08 0.00 93 1011.3
20260507112100 1 325 0.0 0.0 0.00 0.08 0.00 93 1011.1
20260507111833 1 325 0.0 0.0 0.00 0.08 0.00 93 1011.1
20260507111331 1 325 0.0 0.0 0.00 0.10 0.00 93 1011.2
20260507110557 1 325 0.0 0.0 0.00 0.13 0.00 93 1011.2
20260507110328 1 325 0.0 0.0 0.00 0.13 0.00 93 1011.3
20260507105554 1 325 0.0 0.0 0.00 0.15 0.00 93 1011.1
20260507105055 0 325 0.0 0.0 0.00 0.18 0.00 93 1011.1
20260507104825 0 325 0.0 0.0 0.00 0.20 0.00 93 1011.1
20260507104053 0 325 0.0 0.0 0.00 0.23 0.00 92 1011.1
20260507103550 0 325 0.0 0.0 0.00 0.25 0.00 92 1010.9
20260507103051 0 325 0.0 0.0 0.00 0.28 0.00 92 1010.9
20260507102550 0 325 0.0 0.0 0.00 0.30 0.00 92 1010.8
20260507102044 0 325 0.0 0.0 0.00 0.33 0.00 92 1010.8
20260507101542 0 325 0.0 0.0 0.00 0.36 0.00 92 1010.8
20260507101040 0 325 0.0 0.0 0.00 0.38 0.00 92 1010.8
20260507100542 0 325 0.0 0.0 0.00 0.41 0.00 92 1010.8
20260507100034 0 325 0.0 0.0 0.00 0.41 0.00 92 1010.8
20260507095806 1 325 0.0 0.0 0.00 0.43 0.00 91 1010.8
20260507095530 0 325 0.0 0.0 0.00 0.43 0.00 91 1010.8
20260507094800 1 325 0.0 0.0 0.00 0.46 0.00 91 1010.7
20260507094259 1 325 0.0 0.0 0.00 0.48 0.00 91 1010.8
20260507093754 1 325 0.0 0.0 0.00 0.48 0.00 91 1010.7
20260507093024 1 325 0.0 0.0 0.00 0.51 0.00 91 1010.8
20260507092754 1 325 0.0 0.0 0.00 0.53 0.00 91 1010.8
20260507092023 1 325 0.0 0.0 0.00 0.56 0.00 91 1010.8
20260507091522 1 325 0.0 0.0 0.00 0.61 0.00 91 1010.9
20260507091021 1 325 0.0 0.0 0.00 0.64 0.00 91 1010.9
20260507090750 1 325 0.0 0.0 0.00 0.66 0.00 91 1010.8
20260507090250 1 325 0.0 0.0 0.00 0.71 0.00 90 1010.8
20260507085518 1 325 0.0 0.0 0.00 0.76 0.00 90 1010.8
20260507085015 1 325 0.0 0.0 0.00 0.79 0.00 90 1010.8
20260507084750 1 325 0.0 0.0 0.00 0.89 0.00 90 1010.9
20260507084514 1 325 0.0 0.0 0.00 0.81 0.00 90 1010.8
20260507083507 1 325 0.0 0.0 0.00 0.99 0.00 90 1010.9
20260507083238 1 325 0.0 0.0 0.00 0.99 0.00 89 1010.9
20260507082504 1 325 0.0 0.0 0.00 1.02 0.00 89 1010.9
20260507082002 1 325 0.0 0.0 0.00 1.04 0.00 89 1010.9
20260507081502 2 325 0.0 0.0 0.00 1.07 0.00 89 1011.0
20260507081000 2 325 0.0 0.0 0.00 1.09 0.00 89 1011.1
20260507080455 2 325 0.0 0.0 0.00 1.12 0.00 89 1011.1
20260507075954 2 325 0.0 0.0 0.00 1.14 0.00 88 1011.1
20260507075451 2 325 0.0 0.0 0.00 1.14 0.00 88 1011.0
20260507074952 2 325 0.0 0.0 0.00 1.17 0.00 88 1011.1
20260507074451 2 325 0.0 0.0 0.00 1.19 0.00 88 1011.0
20260507073953 2 325 0.0 0.0 0.00 1.19 0.00 87 1011.0
20260507073720 2 325 0.0 0.0 0.00 1.22 0.00 87 1010.9
20260507072949 2 325 0.0 0.0 0.00 1.24 0.00 87 1010.9
20260507072447 3 325 0.0 0.0 0.00 1.24 0.00 87 1010.9
20260507072217 3 325 0.0 0.0 0.00 1.24 0.00 86 1011.0
20260507071445 3 325 0.0 0.0 0.00 1.27 0.00 86 1011.0
20260507071216 3 325 0.0 0.0 0.00 1.30 0.00 86 1011.1
20260507070443 3 325 0.0 0.0 0.00 1.30 0.00 85 1011.1
20260507065943 3 325 0.0 0.0 0.00 1.32 0.00 85 1011.0
20260507065442 3 325 0.0 0.0 0.00 1.35 0.00 85 1011.1
20260507064941 3 325 0.0 0.0 0.00 1.35 0.00 86 1011.1
20260507064438 3 325 0.0 0.0 0.00 1.35 0.00 85 1011.1
20260507063935 4 325 0.0 0.0 0.00 1.35 0.00 85 1011.2
20260507063435 4 325 0.0 0.0 0.00 1.37 0.00 84 1011.2
20260507062935 4 325 0.0 0.0 0.00 1.37 0.00 84 1011.2
20260507062433 4 325 0.0 0.0 0.00 1.40 0.00 84 1011.2
20260507061933 5 325 0.0 0.0 0.00 1.40 0.00 83 1011.2
20260507061431 5 325 0.0 0.0 0.00 1.42 0.00 83 1011.1
20260507061159 5 325 0.0 0.0 0.00 1.42 0.00 82 1011.3
20260507060429 5 325 0.0 0.0 0.00 1.45 0.00 82 1011.3
20260507055928 5 325 0.0 0.0 0.00 1.45 0.00 82 1011.4
20260507055427 5 325 0.0 0.0 0.00 1.45 0.00 81 1011.4
20260507054928 5 325 0.0 0.0 0.00 1.45 0.00 81 1011.4
20260507054422 6 325 0.0 0.0 0.00 1.45 0.00 80 1011.4
20260507053922 6 325 0.0 0.0 0.00 1.47 0.00 79 1011.4
20260507053424 6 325 0.0 0.0 0.00 1.47 0.00 78 1011.2
20260507052923 6 325 0.0 0.0 0.00 1.50 0.00 78 1011.4
20260507052653 6 325 0.0 0.0 0.00 1.52 0.00 78 1011.4
20260507051923 6 325 0.0 0.0 0.00 1.52 0.00 78 1011.5
20260507051417 6 325 0.0 0.0 0.00 1.55 0.00 78 1011.6
20260507050918 6 325 0.0 0.0 0.00 1.55 0.00 77 1011.6
20260507050417 6 325 0.0 0.0 0.00 1.55 0.00 77 1011.6
20260507045918 6 325 0.0 0.0 0.00 1.55 0.00 76 1011.6
20260507045415 6 325 0.0 0.0 0.00 1.57 0.00 75 1011.7
20260507044914 6 325 0.0 0.0 0.00 1.57 0.00 75 1011.7
20260507044410 6 325 0.0 0.0 0.00 1.57 0.00 75 1011.7
20260507043907 6 325 0.0 0.0 0.00 1.57 0.00 75 1011.7
20260507043636 7 325 0.0 0.0 0.00 1.60 0.00 73 1011.8
20260507042903 7 325 0.0 0.0 0.00 1.63 0.00 72 1011.9
20260507042402 7 325 0.0 0.0 0.00 1.63 0.00 71 1011.9
20260507041900 7 325 0.0 0.0 0.00 1.63 0.00 71 1011.8
20260507041358 7 325 0.0 0.0 0.00 1.63 0.00 71 1011.8
20260507040857 7 325 0.0 0.0 0.00 1.65 0.00 72 1012.0
20260507040358 7 325 0.0 0.0 0.00 1.65 0.00 70 1011.9
20260507035854 7 325 0.0 0.0 0.00 1.65 1.65 71 1011.8
20260507035354 7 325 0.0 1.6 0.00 1.65 1.65 71 1011.7
20260507034850 7 325 0.0 1.6 0.00 1.65 1.65 69 1011.7
20260507034345 7 325 0.0 1.6 0.00 1.65 1.65 71 1011.6
20260507033845 7 325 0.0 1.6 0.00 1.65 1.65 68 1011.7
20260507033342 7 325 0.0 1.6 0.00 1.65 1.65 69 1011.7
20260507032842 7 325 0.0 1.6 0.00 1.65 1.65 69 1011.7
20260507032338 7 325 0.0 0.0 0.00 1.65 1.65 70 1011.7
20260507031838 7 325 0.0 1.6 0.00 1.68 1.65 70 1011.7
20260507031610 7 325 0.0 1.6 0.00 1.68 1.65 68 1011.8
20260507030838 7 325 0.0 0.0 0.00 1.68 1.65 70 1011.8
20260507030336 7 325 0.0 0.0 0.00 1.70 1.65 69 1011.7
20260507025838 7 325 0.0 1.6 0.00 1.70 1.65 68 1011.8
20260507025331 7 325 0.0 1.6 0.00 1.70 1.65 68 1011.8
20260507024831 7 325 0.0 0.0 0.00 1.70 1.65 69 1011.7
20260507024335 7 325 0.0 0.0 0.00 1.73 1.65 67 1011.5
20260507024329 7 325 0.0 0.0 0.00 1.70 1.65 69 1011.5
20260507023601 7 325 0.0 0.0 0.00 1.75 1.65 67 1011.4
20260507022830 7 325 0.0 0.0 0.00 1.75 1.65 68 1011.4
20260507022322 7 325 0.0 0.0 0.00 1.80 1.65 69 1011.2
20260507021823 7 325 0.0 1.6 0.00 1.85 1.65 67 1011.2
20260507021324 7 325 0.0 1.6 0.00 1.88 1.65 66 1011.2
20260507020822 7 325 0.0 1.6 0.00 1.93 1.65 66 1011.2
20260507020323 7 325 0.0 0.0 0.00 1.98 1.65 66 1011.2
20260507015816 7 325 0.0 0.0 0.00 2.03 1.65 67 1011.3
20260507015314 8 325 0.0 0.0 0.00 2.13 1.65 66 1011.3
20260507014813 8 325 0.0 0.0 0.00 2.21 1.65 66 1011.3
20260507014309 8 325 0.0 0.0 0.00 2.26 1.65 66 1011.4
20260507013810 8 325 0.0 0.0 0.00 2.26 1.65 66 1011.4
20260507013307 8 325 0.0 1.6 0.00 2.26 1.65 66 1011.3
20260507012804 8 325 0.0 1.6 0.00 2.26 1.65 65 1011.2
20260507012307 8 325 0.0 1.6 0.00 2.26 1.65 64 1011.3
20260507011804 8 325 0.0 1.6 0.00 2.26 1.65 65 1011.3
20260507011303 8 325 0.0 0.0 0.00 2.26 1.65 63 1011.3
20260507010802 8 325 0.0 0.0 0.00 2.26 1.65 65 1011.3
20260507010256 8 325 0.0 1.6 0.00 2.26 1.65 65 1011.2
20260507005754 8 325 0.0 1.6 0.00 2.26 1.65 64 1011.1
20260507005252 8 325 0.0 1.6 0.00 2.26 1.65 65 1011.1
20260507005020 8 325 0.0 1.6 0.00 2.26 1.65 64 1011.2
20260507004250 8 325 0.0 4.8 0.00 2.26 1.65 62 1011.1
20260507003745 8 325 0.0 4.8 0.00 2.26 1.65 61 1011.2
20260507003246 8 325 0.0 1.6 0.00 2.26 1.65 62 1011.2
20260507002746 8 325 0.0 0.0 0.00 2.26 1.65 63 1011.2
20260507002518 8 325 0.0 1.6 0.00 2.26 1.65 62 1011.3
20260507001745 9 325 0.0 1.6 0.00 2.26 1.65 61 1011.2
20260507001245 9 325 0.0 1.6 0.00 2.26 1.65 60 1011.1
20260507000737 9 325 0.0 1.6 0.00 2.26 1.65 61 1011.1
20260507000235 9 325 0.0 3.2 0.00 2.26 1.65 60 1011.1
20260506235738 9 325 0.0 1.6 0.00 2.26 1.65 58 1011.3
20260506235734 9 325 0.0 3.2 0.00 2.26 1.65 58 1011.3
20260506234734 9 325 0.0 0.0 0.00 2.29 1.65 60 1011.2
20260506234230 9 325 0.0 1.6 0.00 2.34 1.65 56 1011.2
20260506233726 9 325 0.0 3.2 0.00 2.34 1.65 56 1011.1
20260506233228 9 325 0.0 3.2 0.00 2.34 1.65 58 1010.6
20260506232728 10 325 0.0 4.8 0.00 2.34 1.65 54 1010.8
20260506232226 10 325 0.0 4.8 0.00 2.34 1.65 54 1010.6